When you browse on this site, cookies collect data to enhance your experience and personalize the content and advertising you see.
Visit our Privacy Policy to learn more. By continuing to use the site, you agree to this use of cookies and data.
  • In Hungary
  • List of Countries
  • For 7 days
  • Water Temperature
  • Weather Map
  • News
  • Weather Widgets
  • user-avatar
    Login

    Hourly Weather Bugi

    Today, 22 September, Sunday

    Time Temperature Precipitation Wind Pressure Humidity
    00:00 +10°C° 0 mm 3 mps 756 mmHg 96%
    01:00 +9°C° 0 mm 3 mps 756 mmHg 96%
    02:00 +9°C° 0 mm 3 mps 756 mmHg 96%
    03:00 +9°C° 0 mm 3 mps 756 mmHg 96%
    04:00 +9°C° 0 mm 3 mps 755 mmHg 96%
    05:00 +9°C° 0 mm 3 mps 755 mmHg 94%
    06:00 +10°C° 0 mm 4 mps 755 mmHg 92%
    07:00 +11°C° 0 mm 4 mps 755 mmHg 90%
    08:00 +12°C° 0 mm 4 mps 755 mmHg 83%
    09:00 +14°C° 0 mm 4 mps 755 mmHg 76%
    10:00 +17°C° 0 mm 3 mps 755 mmHg 69%
    11:00 +18°C° 0 mm 3 mps 755 mmHg 66%
    12:00 +19°C° 0 mm 3 mps 754 mmHg 62%
    13:00 +20°C° 0 mm 3 mps 754 mmHg 58%
    14:00 +19°C° 0 mm 3 mps 754 mmHg 62%
    15:00 +19°C° 0 mm 3 mps 754 mmHg 65%
    16:00 +18°C° 0 mm 3 mps 753 mmHg 69%
    17:00 +16°C° 0 mm 2 mps 754 mmHg 77%
    18:00 +14°C° 0 mm 2 mps 754 mmHg 85%
    19:00 +13°C° 0 mm 1 mps 754 mmHg 93%
    20:00 +12°C° 0 mm 2 mps 754 mmHg 93%
    21:00 +10°C° 0 mm 3 mps 755 mmHg 93%
    22:00 +10°C° 0 mm 4 mps 755 mmHg 94%
    23:00 +8°C° 0 mm 4 mps 755 mmHg 92%

    Tomorrow, 23 September, Monday

    Time Temperature Precipitation Wind Pressure Humidity
    00:00 +8°C° 0 mm 4 mps 756 mmHg 89%
    01:00 +7°C° 0 mm 4 mps 756 mmHg 87%
    02:00 +7°C° 0 mm 4 mps 756 mmHg 87%
    03:00 +6°C° 0 mm 4 mps 756 mmHg 86%
    04:00 +6°C° 0 mm 4 mps 756 mmHg 86%
    05:00 +6°C° 0 mm 5 mps 756 mmHg 84%
    06:00 +7°C° 0 mm 5 mps 756 mmHg 82%
    07:00 +7°C° 0 mm 5 mps 757 mmHg 80%
    08:00 +8°C° 0 mm 5 mps 757 mmHg 76%
    09:00 +10°C° 0 mm 5 mps 757 mmHg 71%
    10:00 +12°C° 0 mm 5 mps 758 mmHg 66%
    11:00 +12°C° 0 mm 5 mps 757 mmHg 64%
    12:00 +13°C° 0 mm 5 mps 757 mmHg 61%
    13:00 +14°C° 0 mm 5 mps 757 mmHg 59%
    14:00 +13°C° 0 mm 5 mps 757 mmHg 59%
    15:00 +13°C° 0 mm 4 mps 757 mmHg 59%
    16:00 +13°C° 0 mm 4 mps 756 mmHg 60%
    17:00 +12°C° 0 mm 4 mps 756 mmHg 63%
    18:00 +10°C° 0 mm 4 mps 757 mmHg 66%
    19:00 +8°C° 0 mm 3 mps 757 mmHg 69%
    20:00 +8°C° 0 mm 3 mps 757 mmHg 69%
    21:00 +8°C° 0 mm 3 mps 757 mmHg 69%
    22:00 +7°C° 0 mm 3 mps 757 mmHg 68%
    23:00 +7°C° 0 mm 3 mps 757 mmHg 70%

    Day after tomorrow, 24 September, Tuesday

    Time Temperature Precipitation Wind Pressure Humidity
    00:00 +5°C° 0 mm 3 mps 756 mmHg 72%
    01:00 +5°C° 0 mm 3 mps 756 mmHg 75%
    02:00 +5°C° 0 mm 3 mps 756 mmHg 76%
    03:00 +4°C° 0 mm 3 mps 756 mmHg 77%
    04:00 +4°C° 0 mm 3 mps 755 mmHg 79%
    05:00 +5°C° 0 mm 3 mps 755 mmHg 77%
    06:00 +5°C° 0 mm 3 mps 755 mmHg 76%
    07:00 +7°C° 0 mm 3 mps 755 mmHg 74%
    08:00 +9°C° 0 mm 3 mps 755 mmHg 70%
    09:00 +11°C° 0 mm 3 mps 755 mmHg 67%
    10:00 +14°C° 0 mm 3 mps 755 mmHg 63%
    11:00 +16°C° 0 mm 3 mps 754 mmHg 61%
    12:00 +17°C° 0 mm 3 mps 754 mmHg 59%
    13:00 +18°C° 0 mm 3 mps 753 mmHg 57%
    14:00 +18°C° 0 mm 3 mps 753 mmHg 60%
    15:00 +18°C° 0 mm 3 mps 752 mmHg 62%
    16:00 +18°C° 0 mm 3 mps 752 mmHg 64%
    17:00 +16°C° 0 mm 3 mps 752 mmHg 70%
    18:00 +13°C° 0 mm 3 mps 751 mmHg 75%
    19:00 +11°C° 0 mm 3 mps 751 mmHg 81%
    20:00 +11°C° 0 mm 3 mps 751 mmHg 81%
    21:00 +11°C° 0 mm 4 mps 751 mmHg 80%
    22:00 +11°C° 0 mm 4 mps 751 mmHg 79%
    23:00 +11°C° 0.2 mm 4 mps 751 mmHg 78%

    25 September, Wednesday

    Time Temperature Precipitation Wind Pressure Humidity
    00:00 +11°C° 0.2 mm 4 mps 750 mmHg 77%
    01:00 +11°C° 0.2 mm 4 mps 750 mmHg 76%
    02:00 +11°C° 0.1 mm 4 mps 750 mmHg 77%
    03:00 +11°C° 0.1 mm 4 mps 749 mmHg 79%
    04:00 +11°C° 0.1 mm 4 mps 749 mmHg 80%
    05:00 +11°C° 0.1 mm 3 mps 749 mmHg 81%
    06:00 +11°C° 0.1 mm 3 mps 748 mmHg 81%
    07:00 +11°C° 0.1 mm 3 mps 748 mmHg 82%
    08:00 +12°C° 0.1 mm 3 mps 748 mmHg 81%
    09:00 +12°C° 0.1 mm 3 mps 748 mmHg 81%
    10:00 +12°C° 0.1 mm 3 mps 748 mmHg 80%
    11:00 +12°C° 0.2 mm 3 mps 748 mmHg 82%
    12:00 +13°C° 0.2 mm 2 mps 747 mmHg 84%
    13:00 +13°C° 0.2 mm 2 mps 747 mmHg 86%
    14:00 +13°C° 0.3 mm 2 mps 747 mmHg 87%
    15:00 +13°C° 0.3 mm 2 mps 746 mmHg 88%
    16:00 +13°C° 0.3 mm 2 mps 746 mmHg 89%
    17:00 +13°C° 0.1 mm 2 mps 746 mmHg 90%
    18:00 +13°C° 0.1 mm 2 mps 746 mmHg 91%
    19:00 +13°C° 0.1 mm 2 mps 746 mmHg 91%
    20:00 +13°C° 0 mm 2 mps 746 mmHg 92%
    21:00 +13°C° 0 mm 1 mps 746 mmHg 92%
    22:00 +13°C° 0 mm 1 mps 747 mmHg 92%
    23:00 +13°C° 0.1 mm 1 mps 747 mmHg 93%

    26 September, Thursday

    Time Temperature Precipitation Wind Pressure Humidity
    00:00 +12°C° 0.1 mm 1 mps 746 mmHg 94%
    01:00 +12°C° 0.1 mm 1 mps 746 mmHg 94%
    02:00 +12°C° 0.3 mm 1 mps 747 mmHg 95%
    03:00 +12°C° 0.3 mm 1 mps 747 mmHg 96%
    04:00 +12°C° 0.3 mm 1 mps 747 mmHg 97%
    05:00 +12°C° 0.2 mm 1 mps 747 mmHg 97%
    06:00 +12°C° 0.2 mm 1 mps 747 mmHg 97%
    07:00 +12°C° 0.2 mm 1 mps 747 mmHg 97%
    08:00 +12°C° 0 mm 1 mps 748 mmHg 96%
    09:00 +13°C° 0 mm 1 mps 748 mmHg 94%
    10:00 +13°C° 0 mm 1 mps 749 mmHg 92%
    11:00 +13°C° 0 mm 1 mps 749 mmHg 90%
    12:00 +14°C° 0 mm 1 mps 749 mmHg 88%
    13:00 +14°C° 0 mm 2 mps 749 mmHg 85%
    14:00 +14°C° 0.1 mm 2 mps 749 mmHg 87%
    15:00 +13°C° 0.1 mm 2 mps 750 mmHg 89%
    16:00 +13°C° 0.1 mm 2 mps 750 mmHg 90%
    17:00 +12°C° 0 mm 2 mps 750 mmHg 92%
    18:00 +10°C° 0 mm 2 mps 750 mmHg 94%
    19:00 +9°C° 0 mm 2 mps 750 mmHg 96%
    20:00 +9°C° 0 mm 2 mps 751 mmHg 96%
    21:00 +9°C° 0 mm 2 mps 751 mmHg 96%
    22:00 +9°C° 0 mm 2 mps 751 mmHg 96%
    23:00 +8°C° 0 mm 2 mps 751 mmHg 96%

    27 September, Friday

    Time Temperature Precipitation Wind Pressure Humidity
    00:00 +8°C° 0 mm 2 mps 751 mmHg 96%
    01:00 +7°C° 0 mm 2 mps 752 mmHg 96%
    02:00 +7°C° 0 mm 2 mps 752 mmHg 96%
    03:00 +7°C° 0 mm 2 mps 752 mmHg 95%
    04:00 +8°C° 0 mm 1 mps 752 mmHg 94%
    05:00 +8°C° 0 mm 1 mps 752 mmHg 92%
    06:00 +8°C° 0 mm 2 mps 752 mmHg 91%
    07:00 +8°C° 0 mm 2 mps 752 mmHg 89%
    08:00 +9°C° 0 mm 2 mps 753 mmHg 85%
    09:00 +10°C° 0 mm 2 mps 753 mmHg 81%
    10:00 +12°C° 0 mm 2 mps 753 mmHg 78%
    11:00 +12°C° 0 mm 2 mps 753 mmHg 75%
    12:00 +13°C° 0 mm 2 mps 753 mmHg 72%
    13:00 +14°C° 0 mm 2 mps 753 mmHg 69%
    14:00 +13°C° 0 mm 3 mps 753 mmHg 70%
    15:00 +13°C° 0 mm 3 mps 753 mmHg 71%
    16:00 +13°C° 0 mm 3 mps 752 mmHg 72%
    17:00 +12°C° 0 mm 3 mps 752 mmHg 76%
    18:00 +12°C° 0 mm 3 mps 753 mmHg 79%
    19:00 +11°C° 0 mm 4 mps 753 mmHg 83%
    20:00 +11°C° 0.3 mm 4 mps 753 mmHg 84%
    21:00 +11°C° 0.3 mm 4 mps 752 mmHg 85%
    22:00 +10°C° 0.3 mm 5 mps 752 mmHg 86%
    23:00 +10°C° 0.5 mm 5 mps 752 mmHg 88%
    Show more